User: anonymous   Login
Location: Unspecified
(0.0000°N, 0.0000°E)
Time: 20:32:15
(UTC+00:00)
Language:

USA 184 - Orbit

View from above orbital plane
View from above orbital plane
View from above satellite
View from above satellite

Ground track
Ground track

The orbit data is extracted from the following two-line orbital elements,

1 29249U 06027A   15107.51765222 0.00000626  00000-0  00000-0 0    02
2 29249  63.8431  23.0027 7119732 267.3565  16.9370  2.00601924    01
Epoch (UTC): 17 April 2015 12:25:25
Eccentricity: 0.7119732
inclination: 63.8431°
perigee height: 1271 km
apogee height: 39086 km
right ascension of ascending node: 23.0027°
argument of perigee: 267.3565°
revolutions per day: 2.00601924
mean anomaly at epoch: 16.9370°
orbit number at epoch: 0

The dashed part of the orbit path shows where the satellite is in the earth's shadow,  

DLR